Flag for Spain Weather past 2 weeks in Almería, Spain

Now
90 °F

Hot.


Feels Like: 96 °F
Forecast: 71 / 95 °F
Wind: 13 mph from Southwest

Location: Almeria / Aeropuerto

Current Time: Jul 6, 2015 at 4:25:44 PM

Latest Report: Jul 6, 2015 at 3:00 PM


Visibility: N/A

Pressure: 30.03 "Hg

Humidity: 50%

Dew point: 69 °F

Location of AlmeríaLocation

Historic Weather in Almería — Graph

°F

Almería temperature yesterday

Maximum temperature yesterday: 87 °F (at 4:00 PM)
Minimum temperature yesterday: 75 °F (at 7:00 AM)
Average temperature yesterday: 82 °F

Past Weeks' High & Low Weather Summary

 TemperatureHumidityPressure
High103 °F (Jun 29, 2:00 PM)91% (Jul 4, 6:00 AM)30.19 "Hg (Jul 4, 6:00 AM)
Low66 °F (Jun 23, 7:00 AM)14% (Jun 29, 2:00 PM)29.82 "Hg (Jun 23, 7:00 PM)
Average80 °F58%30.03 "Hg
* Reported Jun 21 3:00 PM — Jul 6 3:00 PM, Almería, Weather by CustomWeather, © 2015

Note: Actual official high and low records may vary slightly from our data, if they occured in-between our weather recording intervals... More about our weather records

Advertising

Almería weather history for previous 24 hours

 ConditionsComfort  
Time TempWeatherWind HumidityBarometerVisibility
3:00 PM
Mon, Jul 6
90 °FHot.13 mph50%30.03 "HgN/A
2:00 PM88 °FHot.14 mph49%30.03 "HgN/A
1:00 PM90 °FHot.10 mph47%30.03 "HgN/A
12:00 PM88 °FWarm.9 mph47%30.04 "HgN/A
11:00 AM86 °FPassing clouds.12 mph54%30.03 "Hg31 mi
10:00 AM88 °FHot.9 mph54%30.01 "HgN/A
9:00 AM91 °FHot.15 mph19%30.01 "HgN/A
8:00 AM87 °FPassing clouds.14 mph23%30.00 "Hg31 mi
7:00 AM84 °FPleasantly warm.13 mph28%30.01 "HgN/A
6:00 AM83 °FPleasantly warm.12 mph31%30.00 "HgN/A
5:00 AM85 °FPleasantly warm.10 mph32%30.00 "HgN/A
4:00 AM85 °FPleasantly warm.10 mph32%30.00 "HgN/A
3:00 AM83 °FWarm.5 mph48%30.01 "HgN/A
2:00 AM78 °FWarm.5 mph67%30.03 "HgN/A
1:00 AM78 °FWarm.2 mph67%30.04 "HgN/A
12:00 AM79 °FWarm.No wind75%30.04 "HgN/A
11:00 PM
Sun, Jul 5
79 °FWarm.6 mph82%30.02 "HgN/A
10:00 PM80 °FWarm.3 mph80%29.99 "HgN/A
9:00 PM82 °FWarm.5 mph78%29.98 "HgN/A
8:00 PM84 °FSunny.7 mph73%29.97 "Hg19 mi
7:00 PM85 °FWarm.10 mph69%29.97 "HgN/A
6:00 PM85 °FWarm.10 mph69%29.98 "HgN/A
5:00 PM86 °FPassing clouds.10 mph64%29.99 "Hg25 mi
4:00 PM87 °FWarm.13 mph63%30.01 "HgN/A
Weather by CustomWeather, © 2015

See weather overviewHow to use our weather pages